Location: Bagnara
(41.0500°N, 14.7833°E)
Time: 10:28:12
(UTC+00:00)

IRIDIUM 106 - Pass Details

Date: 20 June 2021
Orbit: 776 x 779 km, 86.4° (Epoch: 03 August)

Event Time Altitude Azimuth Distance (km) Brightness Sun altitude
Rises 01:34:32 0° 356° (N) 3,270 8.4 -16.5°
Reaches altitude 10° 01:36:53 10° 355° (N) 2,338 7.5 -16.2°
Maximum altitude 01:42:07 80° 269° (W) 795 4.3 -15.6°
Enters shadow 01:46:06 18° 184° (S) 1,854 5.8 -15.2°
